Time,TemperatureF,DewpointF,PressureIn,WindDirection,WindDirectionDegrees,WindSpeedMPH,WindSpeedGustMPH,Humidity,HourlyPrecipIn,Conditions,Clouds,dailyrainin,SoftwareType,DateUTC
2013-03-14 00:00:00,54.1,50.3,30.04,WNW,287,0.0,0.0,87,0.00,,,0.00,Wunderground v.1.15,2013-03-14 07:00:00,
2013-03-14 00:06:00,54.0,50.2,30.04,WNW,287,0.0,0.0,87,0.00,,,0.00,Wunderground v.1.15,2013-03-14 07:06:00,
2013-03-14 00:15:00,54.0,50.2,30.04,WNW,287,0.0,0.0,87,0.00,,,0.00,Wunderground v.1.15,2013-03-14 07:15:00,
2013-03-14 00:20:00,54.0,50.2,30.04,WNW,287,0.0,0.0,87,0.00,,,0.00,Wunderground v.1.15,2013-03-14 07:20:00,
2013-03-14 00:25:00,54.0,50.2,30.04,WNW,287,0.0,0.0,87,0.00,,,0.00,Wunderground v.1.15,2013-03-14 07:25:00,
2013-03-14 00:30:00,54.0,50.2,30.03,WNW,287,0.0,0.0,87,0.00,,,0.00,Wunderground v.1.15,2013-03-14 07:30:00,
2013-03-14 00:40:00,54.0,50.2,30.03,WNW,287,0.0,0.0,87,0.00,,,0.00,Wunderground v.1.15,2013-03-14 07:40:00,
2013-03-14 00:45:00,54.2,50.4,30.03,WNW,287,0.0,0.0,87,0.00,,,0.00,Wunderground v.1.15,2013-03-14 07:45:00,
2013-03-14 00:50:00,54.3,50.5,30.03,WNW,287,0.0,0.0,87,0.00,,,0.00,Wunderground v.1.15,2013-03-14 07:50:00,
2013-03-14 00:55:00,54.7,50.6,30.03,WNW,287,0.0,0.0,86,0.00,,,0.00,Wunderground v.1.15,2013-03-14 07:55:00,
2013-03-14 01:00:00,55.0,50.6,30.03,WNW,287,0.0,0.0,85,0.00,,,0.00,Wunderground v.1.15,2013-03-14 08:00:00,
2013-03-14 01:06:00,54.9,50.5,30.03,WNW,287,0.0,0.0,85,0.00,,,0.00,Wunderground v.1.15,2013-03-14 08:06:00,
2013-03-14 01:15:00,54.9,50.5,30.03,WNW,287,0.0,0.0,85,0.00,,,0.00,Wunderground v.1.15,2013-03-14 08:15:00,
2013-03-14 01:20:00,54.9,50.5,30.03,WNW,287,0.0,0.0,85,0.00,,,0.00,Wunderground v.1.15,2013-03-14 08:20:00,
2013-03-14 01:25:00,54.9,50.5,30.03,WNW,287,0.0,0.0,85,0.00,,,0.00,Wunderground v.1.15,2013-03-14 08:25:00,
2013-03-14 01:30:00,54.7,50.3,30.03,WNW,287,0.0,0.0,85,0.00,,,0.00,Wunderground v.1.15,2013-03-14 08:30:00,
2013-03-14 01:35:00,54.5,50.1,30.03,WNW,287,0.0,0.0,85,0.00,,,0.00,Wunderground v.1.15,2013-03-14 08:35:00,
2013-03-14 01:41:00,54.6,50.2,30.03,WNW,287,0.0,0.0,85,0.00,,,0.00,Wunderground v.1.15,2013-03-14 08:41:00,
2013-03-14 01:46:00,54.5,50.1,30.03,WNW,287,0.0,0.0,85,0.00,,,0.00,Wunderground v.1.15,2013-03-14 08:46:00,
2013-03-14 01:51:00,54.5,50.1,30.03,WNW,287,0.0,0.0,85,0.00,,,0.00,Wunderground v.1.15,2013-03-14 08:51:00,
2013-03-14 02:00:00,54.1,50.0,30.03,WNW,287,0.0,0.0,86,0.00,,,0.00,Wunderground v.1.15,2013-03-14 09:00:00,
2013-03-14 02:05:00,53.8,49.7,30.03,WNW,287,0.0,0.0,86,0.00,,,0.00,Wunderground v.1.15,2013-03-14 09:05:00,
2013-03-14 02:11:00,53.6,49.5,30.03,WNW,287,0.0,0.0,86,0.00,,,0.00,Wunderground v.1.15,2013-03-14 09:11:00,
2013-03-14 02:20:00,53.1,49.6,30.03,WNW,287,0.0,0.0,88,0.00,,,0.00,Wunderground v.1.15,2013-03-14 09:20:00,
2013-03-14 02:25:00,52.8,49.6,30.03,WNW,287,0.0,0.0,89,0.00,,,0.00,Wunderground v.1.15,2013-03-14 09:25:00,
2013-03-14 02:30:00,53.0,49.8,30.04,WNW,287,0.0,0.0,89,0.00,,,0.00,Wunderground v.1.15,2013-03-14 09:30:00,
2013-03-14 02:36:00,53.2,49.7,30.04,WNW,287,0.0,0.0,88,0.00,,,0.00,Wunderground v.1.15,2013-03-14 09:36:00,
2013-03-14 02:41:00,53.3,50.1,30.03,WNW,287,0.0,0.0,89,0.00,,,0.00,Wunderground v.1.15,2013-03-14 09:41:00,
2013-03-14 02:46:00,53.4,49.9,30.04,WNW,287,0.0,0.0,88,0.00,,,0.00,Wunderground v.1.15,2013-03-14 09:46:00,
2013-03-14 02:55:00,53.4,49.9,30.03,WNW,287,0.0,0.0,88,0.00,,,0.00,Wunderground v.1.15,2013-03-14 09:55:00,
2013-03-14 03:00:00,53.3,49.8,30.03,WNW,287,0.0,0.0,88,0.00,,,0.00,Wunderground v.1.15,2013-03-14 10:00:00,
2013-03-14 03:05:00,53.1,49.9,30.03,WNW,287,0.0,0.0,89,0.00,,,0.00,Wunderground v.1.15,2013-03-14 10:05:00,
2013-03-14 03:15:00,53.3,49.8,30.03,WNW,287,0.0,0.0,88,0.00,,,0.00,Wunderground v.1.15,2013-03-14 10:15:00,
2013-03-14 03:21:00,53.4,49.9,30.03,WNW,287,0.0,0.0,88,0.00,,,0.00,Wunderground v.1.15,2013-03-14 10:21:00,
2013-03-14 03:30:00,53.5,50.0,30.03,WNW,287,0.0,0.0,88,0.00,,,0.00,Wunderground v.1.15,2013-03-14 10:30:00,
2013-03-14 03:35:00,53.7,49.9,30.02,WNW,287,0.0,0.0,87,0.00,,,0.00,Wunderground v.1.15,2013-03-14 10:35:00,
2013-03-14 03:40:00,53.7,49.9,30.03,WNW,287,0.0,0.0,87,0.00,,,0.00,Wunderground v.1.15,2013-03-14 10:40:00,
2013-03-14 03:45:00,53.4,49.9,30.03,WNW,287,0.0,0.0,88,0.00,,,0.00,Wunderground v.1.15,2013-03-14 10:45:00,
2013-03-14 03:51:00,53.3,49.8,30.03,WNW,287,0.0,0.0,88,0.00,,,0.00,Wunderground v.1.15,2013-03-14 10:51:00,
2013-03-14 03:56:00,53.2,49.7,30.02,WNW,287,0.0,0.0,88,0.00,,,0.00,Wunderground v.1.15,2013-03-14 10:56:00,
2013-03-14 04:01:00,53.2,49.7,30.02,WNW,287,0.0,0.0,88,0.00,,,0.00,Wunderground v.1.15,2013-03-14 11:01:00,
2013-03-14 04:11:00,53.2,49.7,30.02,WNW,287,0.0,0.0,88,0.00,,,0.00,Wunderground v.1.15,2013-03-14 11:11:00,
2013-03-14 04:20:00,53.1,49.6,30.01,WNW,287,0.0,0.0,88,0.00,,,0.00,Wunderground v.1.15,2013-03-14 11:20:00,
2013-03-14 04:26:00,52.9,49.7,30.01,WNW,287,0.0,0.0,89,0.00,,,0.00,Wunderground v.1.15,2013-03-14 11:26:00,
2013-03-14 04:31:00,52.8,49.6,30.01,WNW,287,0.0,0.0,89,0.00,,,0.00,Wunderground v.1.15,2013-03-14 11:31:00,
2013-03-14 04:40:00,52.7,49.8,30.02,WNW,287,0.0,0.0,90,0.00,,,0.00,Wunderground v.1.15,2013-03-14 11:40:00,
2013-03-14 04:45:00,53.0,50.1,30.02,WNW,287,0.0,0.0,90,0.00,,,0.00,Wunderground v.1.15,2013-03-14 11:45:00,
2013-03-14 04:50:00,53.2,50.0,30.01,WNW,287,0.0,0.0,89,0.00,,,0.00,Wunderground v.1.15,2013-03-14 11:50:00,
2013-03-14 04:55:00,53.3,50.1,30.01,WNW,287,0.0,0.0,89,0.00,,,0.00,Wunderground v.1.15,2013-03-14 11:55:00,
2013-03-14 05:01:00,53.3,50.1,30.02,WNW,287,0.0,0.0,89,0.00,,,0.00,Wunderground v.1.15,2013-03-14 12:01:00,
2013-03-14 05:06:00,53.1,49.9,30.02,WNW,287,0.0,0.0,89,0.00,,,0.00,Wunderground v.1.15,2013-03-14 12:06:00,
2013-03-14 05:15:00,53.2,50.0,30.02,WNW,287,0.0,0.0,89,0.00,,,0.00,Wunderground v.1.15,2013-03-14 12:15:00,
2013-03-14 05:20:00,53.3,50.1,30.02,WNW,287,0.0,0.0,89,0.00,,,0.00,Wunderground v.1.15,2013-03-14 12:20:00,
2013-03-14 05:26:00,53.2,49.7,30.02,WNW,287,0.0,0.0,88,0.00,,,0.00,Wunderground v.1.15,2013-03-14 12:26:00,
2013-03-14 05:31:00,53.2,49.7,30.02,WNW,287,0.0,0.0,88,0.00,,,0.00,Wunderground v.1.15,2013-03-14 12:31:00,
2013-03-14 05:40:00,52.9,49.7,30.02,WNW,287,0.0,0.0,89,0.00,,,0.00,Wunderground v.1.15,2013-03-14 12:40:00,
2013-03-14 05:45:00,52.9,49.7,30.02,WNW,287,0.0,0.0,89,0.00,,,0.00,Wunderground v.1.15,2013-03-14 12:45:00,
2013-03-14 05:50:00,53.0,49.8,30.02,WNW,287,0.0,0.0,89,0.00,,,0.00,Wunderground v.1.15,2013-03-14 12:50:00,
2013-03-14 05:55:00,53.0,49.8,30.02,WNW,287,0.0,0.0,89,0.00,,,0.00,Wunderground v.1.15,2013-03-14 12:55:00,
2013-03-14 06:01:00,52.8,49.6,30.02,WNW,287,0.0,0.0,89,0.00,,,0.00,Wunderground v.1.15,2013-03-14 13:01:00,
2013-03-14 06:06:00,52.8,49.6,30.03,WNW,287,0.0,0.0,89,0.00,,,0.00,Wunderground v.1.15,2013-03-14 13:06:00,
2013-03-14 06:11:00,52.7,49.8,30.03,WNW,287,0.0,0.0,90,0.00,,,0.00,Wunderground v.1.15,2013-03-14 13:11:00,
2013-03-14 06:20:00,52.5,49.7,30.02,WNW,287,0.0,0.0,90,0.00,,,0.00,Wunderground v.1.15,2013-03-14 13:20:00,
2013-03-14 06:35:00,52.1,49.6,30.03,WNW,287,0.0,0.0,91,0.00,,,0.00,Wunderground v.1.15,2013-03-14 13:35:00,
2013-03-14 06:45:00,52.1,49.3,30.03,WNW,287,0.0,0.0,90,0.00,,,0.00,Wunderground v.1.15,2013-03-14 13:45:00,
2013-03-14 06:50:00,52.1,49.3,30.03,WNW,287,0.0,0.0,90,0.00,,,0.00,Wunderground v.1.15,2013-03-14 13:50:00,
2013-03-14 07:00:00,51.9,49.4,30.03,WNW,287,0.0,0.0,91,0.00,,,0.00,Wunderground v.1.15,2013-03-14 14:00:00,
2013-03-14 07:11:00,51.8,49.0,30.03,WNW,287,0.0,0.0,90,0.00,,,0.00,Wunderground v.1.15,2013-03-14 14:11:00,
2013-03-14 07:20:00,51.6,49.1,30.03,WNW,287,0.0,0.0,91,0.00,,,0.00,Wunderground v.1.15,2013-03-14 14:20:00,
2013-03-14 07:25:00,51.7,49.2,30.03,WNW,287,0.0,0.0,91,0.00,,,0.00,Wunderground v.1.15,2013-03-14 14:25:00,
2013-03-14 07:35:00,51.7,48.9,30.04,NW,320,0.0,0.0,90,0.00,,,0.00,Wunderground v.1.15,2013-03-14 14:35:00,
2013-03-14 07:40:00,51.9,49.1,30.04,NNW,340,0.0,0.0,90,0.00,,,0.00,Wunderground v.1.15,2013-03-14 14:40:00,
2013-03-14 07:50:00,51.6,48.8,30.04,NNW,341,0.0,0.0,90,0.00,,,0.00,Wunderground v.1.15,2013-03-14 14:50:00,
2013-03-14 07:55:00,51.5,49.0,30.04,NNW,340,0.0,0.0,91,0.00,,,0.00,Wunderground v.1.15,2013-03-14 14:55:00,
2013-03-14 08:01:00,51.6,49.1,30.04,NNW,340,0.0,0.0,91,0.00,,,0.00,Wunderground v.1.15,2013-03-14 15:01:00,
2013-03-14 08:11:00,52.1,49.6,30.05,NNW,340,0.0,0.0,91,0.00,,,0.00,Wunderground v.1.15,2013-03-14 15:11:00,
2013-03-14 08:21:00,53.0,49.8,30.05,NNE,25,0.0,0.0,89,0.00,,,0.00,Wunderground v.1.15,2013-03-14 15:21:00,
2013-03-14 08:26:00,53.5,49.7,30.05,NNE,25,0.0,0.0,87,0.00,,,0.00,Wunderground v.1.15,2013-03-14 15:26:00,
2013-03-14 08:35:00,54.5,50.4,30.05,NNE,26,0.0,0.0,86,0.00,,,0.00,Wunderground v.1.15,2013-03-14 15:35:00,
2013-03-14 08:40:00,54.8,50.4,30.06,NNE,25,0.0,0.0,85,0.00,,,0.00,Wunderground v.1.15,2013-03-14 15:40:00,
2013-03-14 08:45:00,55.4,51.3,30.06,NNE,25,0.0,0.0,86,0.00,,,0.00,Wunderground v.1.15,2013-03-14 15:45:00,
2013-03-14 08:51:00,55.9,51.5,30.06,NNE,26,0.0,0.0,85,0.00,,,0.00,Wunderground v.1.15,2013-03-14 15:51:00,
2013-03-14 09:00:00,56.9,52.1,30.06,NNE,26,0.0,0.0,84,0.00,,,0.00,Wunderground v.1.15,2013-03-14 16:00:00,
2013-03-14 09:05:00,57.2,52.4,30.06,West,266,0.0,0.0,84,0.00,,,0.00,Wunderground v.1.15,2013-03-14 16:05:00,
2013-03-14 09:15:00,58.4,52.3,30.07,West,266,0.0,0.0,80,0.00,,,0.00,Wunderground v.1.15,2013-03-14 16:15:00,
2013-03-14 09:20:00,59.3,53.1,30.07,West,266,0.0,0.0,80,0.00,,,0.00,Wunderground v.1.15,2013-03-14 16:20:00,
2013-03-14 09:25:00,60.2,54.0,30.07,West,266,0.0,0.0,80,0.00,,,0.00,Wunderground v.1.15,2013-03-14 16:25:00,
2013-03-14 09:31:00,61.3,53.7,30.07,SSE,152,0.0,0.0,76,0.00,,,0.00,Wunderground v.1.15,2013-03-14 16:31:00,
2013-03-14 09:36:00,62.5,53.7,30.07,SE,124,0.0,0.0,73,0.00,,,0.00,Wunderground v.1.15,2013-03-14 16:36:00,
2013-03-14 09:45:00,63.9,55.1,30.07,SE,130,0.0,0.0,73,0.00,,,0.00,Wunderground v.1.15,2013-03-14 16:45:00,
2013-03-14 09:51:00,64.4,54.8,30.07,South,181,0.0,1.0,71,0.00,,,0.00,Wunderground v.1.15,2013-03-14 16:51:00,
2013-03-14 10:00:00,65.9,55.0,30.07,SE,124,0.0,0.0,68,0.00,,,0.00,Wunderground v.1.15,2013-03-14 17:00:00,
2013-03-14 10:05:00,66.2,54.1,30.08,East,91,0.0,0.0,65,0.00,,,0.00,Wunderground v.1.15,2013-03-14 17:05:00,
2013-03-14 10:15:00,67.4,54.8,30.08,SE,129,0.0,0.0,64,0.00,,,0.00,Wunderground v.1.15,2013-03-14 17:15:00,
2013-03-14 10:20:00,68.3,54.8,30.08,South,169,0.0,1.0,62,0.00,,,0.00,Wunderground v.1.15,2013-03-14 17:20:00,
2013-03-14 10:25:00,68.6,54.6,30.08,SE,133,0.0,0.0,61,0.00,,,0.00,Wunderground v.1.15,2013-03-14 17:25:00,
2013-03-14 10:31:00,68.8,55.2,30.08,ESE,115,0.0,1.0,62,0.00,,,0.00,Wunderground v.1.15,2013-03-14 17:31:00,
2013-03-14 10:36:00,69.0,55.0,30.08,SSE,156,0.0,0.0,61,0.00,,,0.00,Wunderground v.1.15,2013-03-14 17:36:00,
2013-03-14 10:45:00,69.8,54.8,30.08,SSE,153,0.0,0.0,59,0.00,,,0.00,Wunderground v.1.15,2013-03-14 17:45:00,
2013-03-14 10:51:00,70.0,55.0,30.08,SSE,153,0.0,0.0,59,0.00,,,0.00,Wunderground v.1.15,2013-03-14 17:51:00,
2013-03-14 10:56:00,70.2,55.2,30.08,SW,233,0.0,1.0,59,0.00,,,0.00,Wunderground v.1.15,2013-03-14 17:56:00,
2013-03-14 11:05:00,69.7,55.2,30.08,SW,233,1.0,2.0,60,0.00,,,0.00,Wunderground v.1.15,2013-03-14 18:05:00,
2013-03-14 11:11:00,69.8,56.6,30.08,SSW,205,1.0,1.0,63,0.00,,,0.00,Wunderground v.1.15,2013-03-14 18:11:00,
2013-03-14 11:21:00,70.6,56.0,30.07,South,181,1.0,2.0,60,0.00,,,0.00,Wunderground v.1.15,2013-03-14 18:21:00,
2013-03-14 11:30:00,71.4,56.8,30.08,SSE,167,1.0,2.0,60,0.00,,,0.00,Wunderground v.1.15,2013-03-14 18:30:00,
2013-03-14 11:35:00,71.8,55.7,30.08,SW,219,2.0,2.0,57,0.00,,,0.00,Wunderground v.1.15,2013-03-14 18:35:00,
2013-03-14 11:40:00,72.0,55.9,30.08,SSW,200,2.0,2.0,57,0.00,,,0.00,Wunderground v.1.15,2013-03-14 18:40:00,
2013-03-14 11:46:00,71.8,56.2,30.08,SSW,200,1.0,2.0,58,0.00,,,0.00,Wunderground v.1.15,2013-03-14 18:46:00,
2013-03-14 11:51:00,72.3,56.7,30.08,SSW,200,1.0,3.0,58,0.00,,,0.00,Wunderground v.1.15,2013-03-14 18:51:00,
2013-03-14 12:00:00,72.9,55.8,30.08,SW,231,1.0,1.0,55,0.00,,,0.00,Wunderground v.1.15,2013-03-14 19:00:00,
2013-03-14 12:05:00,72.7,55.6,30.08,West,268,1.0,1.0,55,0.00,,,0.00,Wunderground v.1.15,2013-03-14 19:05:00,
2013-03-14 12:15:00,73.2,56.6,30.08,SW,233,1.0,1.0,56,0.00,,,0.00,Wunderground v.1.15,2013-03-14 19:15:00,
2013-03-14 12:21:00,73.2,56.1,30.08,SSW,203,1.0,1.0,55,0.00,,,0.00,Wunderground v.1.15,2013-03-14 19:21:00,
2013-03-14 12:30:00,74.1,56.4,30.08,ESE,116,1.0,2.0,54,0.00,,,0.00,Wunderground v.1.15,2013-03-14 19:30:00,
2013-03-14 12:36:00,74.4,56.2,30.08,South,181,1.0,2.0,53,0.00,,,0.00,Wunderground v.1.15,2013-03-14 19:36:00,
2013-03-14 12:41:00,74.6,55.8,30.07,SSW,212,1.0,2.0,52,0.00,,,0.00,Wunderground v.1.15,2013-03-14 19:41:00,
2013-03-14 12:46:00,74.9,56.6,30.07,South,172,1.0,1.0,53,0.00,,,0.00,Wunderground v.1.15,2013-03-14 19:46:00,
2013-03-14 12:55:00,75.2,56.4,30.07,SW,216,1.0,1.0,52,0.00,,,0.00,Wunderground v.1.15,2013-03-14 19:55:00,
2013-03-14 13:00:00,75.6,55.6,30.07,SW,224,1.0,1.0,50,0.00,,,0.00,Wunderground v.1.15,2013-03-14 20:00:00,
2013-03-14 13:06:00,76.0,56.0,30.06,WSW,240,2.0,2.0,50,0.00,,,0.00,Wunderground v.1.15,2013-03-14 20:06:00,
2013-03-14 13:15:00,75.4,55.5,30.06,SSW,200,2.0,2.0,50,0.00,,,0.00,Wunderground v.1.15,2013-03-14 20:15:00,
2013-03-14 13:20:00,75.0,55.1,30.06,South,182,2.0,2.0,50,0.00,,,0.00,Wunderground v.1.15,2013-03-14 20:20:00,
2013-03-14 13:25:00,75.3,52.5,30.06,SW,214,1.0,1.0,45,0.00,,,0.00,Wunderground v.1.15,2013-03-14 20:25:00,
2013-03-14 13:31:00,75.3,55.9,30.06,SW,217,1.0,2.0,51,0.00,,,0.00,Wunderground v.1.15,2013-03-14 20:31:00,
2013-03-14 13:40:00,75.5,56.1,30.05,SSE,162,1.0,2.0,51,0.00,,,0.00,Wunderground v.1.15,2013-03-14 20:40:00,
2013-03-14 13:45:00,75.6,55.1,30.06,SW,232,1.0,1.0,49,0.00,,,0.00,Wunderground v.1.15,2013-03-14 20:45:00,
2013-03-14 13:50:00,75.7,56.3,30.06,South,176,1.0,2.0,51,0.00,,,0.00,Wunderground v.1.15,2013-03-14 20:50:00,
2013-03-14 13:55:00,76.2,55.1,30.06,SW,235,1.0,1.0,48,0.00,,,0.00,Wunderground v.1.15,2013-03-14 20:55:00,
2013-03-14 14:01:00,77.1,55.9,30.05,ESE,111,1.0,1.0,48,0.00,,,0.00,Wunderground v.1.15,2013-03-14 21:01:00,
2013-03-14 14:11:00,76.6,51.8,30.05,WSW,257,1.0,1.0,42,0.00,,,0.00,Wunderground v.1.15,2013-03-14 21:11:00,
2013-03-14 14:21:00,75.7,49.7,30.05,WSW,257,2.0,3.0,40,0.00,,,0.00,Wunderground v.1.15,2013-03-14 21:21:00,
2013-03-14 14:26:00,75.5,49.5,30.05,West,266,2.0,3.0,40,0.00,,,0.00,Wunderground v.1.15,2013-03-14 21:26:00,
2013-03-14 14:31:00,75.8,50.4,30.05,West,269,2.0,2.0,41,0.00,,,0.00,Wunderground v.1.15,2013-03-14 21:31:00,
2013-03-14 14:40:00,75.8,48.4,30.05,WNW,282,1.0,1.0,38,0.00,,,0.00,Wunderground v.1.15,2013-03-14 21:40:00,
2013-03-14 14:45:00,75.6,49.6,30.04,West,259,2.0,2.0,40,0.00,,,0.00,Wunderground v.1.15,2013-03-14 21:45:00,
2013-03-14 14:51:00,76.0,49.2,30.04,SW,230,2.0,2.0,39,0.00,,,0.00,Wunderground v.1.15,2013-03-14 21:51:00,
2013-03-14 14:56:00,76.1,49.3,30.04,SSW,200,2.0,2.0,39,0.00,,,0.00,Wunderground v.1.15,2013-03-14 21:56:00,
2013-03-14 15:01:00,76.0,47.8,30.05,WSW,247,2.0,4.0,37,0.00,,,0.00,Wunderground v.1.15,2013-03-14 22:01:00,
2013-03-14 15:11:00,74.6,50.0,30.04,NNW,333,3.0,3.0,42,0.00,,,0.00,Wunderground v.1.15,2013-03-14 22:11:00,
2013-03-14 15:20:00,74.4,51.7,30.04,NE,35,1.0,1.0,45,0.00,,,0.00,Wunderground v.1.15,2013-03-14 22:20:00,
2013-03-14 15:25:00,74.3,51.0,30.04,SW,229,1.0,1.0,44,0.00,,,0.00,Wunderground v.1.15,2013-03-14 22:25:00,
2013-03-14 15:30:00,74.6,52.4,30.04,NE,34,1.0,1.0,46,0.00,,,0.00,Wunderground v.1.15,2013-03-14 22:30:00,
2013-03-14 15:35:00,75.0,52.2,30.04,NE,52,1.0,2.0,45,0.00,,,0.00,Wunderground v.1.15,2013-03-14 22:35:00,
2013-03-14 15:40:00,75.4,53.2,30.03,NE,55,1.0,1.0,46,0.00,,,0.00,Wunderground v.1.15,2013-03-14 22:40:00,
2013-03-14 15:46:00,76.0,51.2,30.04,West,273,1.0,3.0,42,0.00,,,0.00,Wunderground v.1.15,2013-03-14 22:46:00,
2013-03-14 15:51:00,76.0,50.6,30.03,SW,234,1.0,1.0,41,0.00,,,0.00,Wunderground v.1.15,2013-03-14 22:51:00,
2013-03-14 16:00:00,75.7,48.3,30.03,West,261,2.0,2.0,38,0.00,,,0.00,Wunderground v.1.15,2013-03-14 23:00:00,
2013-03-14 16:05:00,75.8,49.1,30.03,NW,326,2.0,3.0,39,0.00,,,0.00,Wunderground v.1.15,2013-03-14 23:05:00,
2013-03-14 16:15:00,76.8,51.3,30.03,SW,234,2.0,2.0,41,0.00,,,0.00,Wunderground v.1.15,2013-03-14 23:15:00,
2013-03-14 16:20:00,76.5,50.4,30.03,North,357,2.0,3.0,40,0.00,,,0.00,Wunderground v.1.15,2013-03-14 23:20:00,
2013-03-14 16:25:00,76.3,48.8,30.03,SSW,204,2.0,2.0,38,0.00,,,0.00,Wunderground v.1.15,2013-03-14 23:25:00,
2013-03-14 16:30:00,76.0,49.2,30.03,NNE,27,2.0,2.0,39,0.00,,,0.00,Wunderground v.1.15,2013-03-14 23:30:00,
2013-03-14 16:36:00,75.7,50.3,30.03,NW,320,1.0,1.0,41,0.00,,,0.00,Wunderground v.1.15,2013-03-14 23:36:00,
2013-03-14 16:41:00,75.5,50.8,30.03,SW,233,1.0,3.0,42,0.00,,,0.00,Wunderground v.1.15,2013-03-14 23:41:00,
2013-03-14 16:46:00,75.2,51.2,30.03,SW,234,2.0,2.0,43,0.00,,,0.00,Wunderground v.1.15,2013-03-14 23:46:00,
2013-03-14 16:55:00,74.0,51.3,30.03,WSW,252,2.0,3.0,45,0.00,,,0.00,Wunderground v.1.15,2013-03-14 23:55:00,
2013-03-14 17:00:00,73.6,50.9,30.03,WNW,286,1.0,1.0,45,0.00,,,0.00,Wunderground v.1.15,2013-03-15 00:00:00,
2013-03-14 17:05:00,73.5,52.0,30.04,NNW,337,1.0,2.0,47,0.00,,,0.00,Wunderground v.1.15,2013-03-15 00:05:00,
2013-03-14 17:15:00,72.6,51.8,30.03,East,95,1.0,1.0,48,0.00,,,0.00,Wunderground v.1.15,2013-03-15 00:15:00,
2013-03-14 17:20:00,72.4,51.6,30.04,NW,307,1.0,3.0,48,0.00,,,0.00,Wunderground v.1.15,2013-03-15 00:20:00,
2013-03-14 17:25:00,71.8,52.2,30.03,SW,223,2.0,2.0,50,0.00,,,0.00,Wunderground v.1.15,2013-03-15 00:25:00,
2013-03-14 17:30:00,71.6,52.5,30.03,WSW,241,1.0,2.0,51,0.00,,,0.00,Wunderground v.1.15,2013-03-15 00:30:00,
2013-03-14 17:36:00,71.6,52.0,30.03,NE,55,1.0,5.0,50,0.00,,,0.00,Wunderground v.1.15,2013-03-15 00:36:00,
2013-03-14 17:45:00,70.7,52.2,30.03,NNE,32,1.0,2.0,52,0.00,,,0.00,Wunderground v.1.15,2013-03-15 00:45:00,
2013-03-14 17:50:00,70.3,52.4,30.02,NE,37,1.0,2.0,53,0.00,,,0.00,Wunderground v.1.15,2013-03-15 00:50:00,
2013-03-14 17:55:00,70.2,52.8,30.02,SW,232,1.0,1.0,54,0.00,,,0.00,Wunderground v.1.15,2013-03-15 00:55:00,
2013-03-14 18:01:00,69.9,52.5,30.02,West,259,1.0,2.0,54,0.00,,,0.00,Wunderground v.1.15,2013-03-15 01:01:00,
2013-03-14 18:06:00,69.7,52.8,30.01,West,272,1.0,2.0,55,0.00,,,0.00,Wunderground v.1.15,2013-03-15 01:06:00,
2013-03-14 18:15:00,69.2,52.8,30.02,WSW,250,1.0,1.0,56,0.00,,,0.00,Wunderground v.1.15,2013-03-15 01:15:00,
2013-03-14 18:20:00,69.0,53.1,30.01,North,10,0.0,1.0,57,0.00,,,0.00,Wunderground v.1.15,2013-03-15 01:20:00,
2013-03-14 18:25:00,68.5,53.6,30.01,North,9,0.0,1.0,59,0.00,,,0.00,Wunderground v.1.15,2013-03-15 01:25:00,
2013-03-14 18:31:00,68.3,52.9,30.02,WSW,249,0.0,0.0,58,0.00,,,0.00,Wunderground v.1.15,2013-03-15 01:31:00,
2013-03-14 18:36:00,68.3,53.4,30.03,SSW,213,0.0,0.0,59,0.00,,,0.00,Wunderground v.1.15,2013-03-15 01:36:00,
2013-03-14 18:45:00,67.9,53.0,30.02,West,280,0.0,1.0,59,0.00,,,0.00,Wunderground v.1.15,2013-03-15 01:45:00,
2013-03-14 18:50:00,68.0,52.7,30.02,NW,313,1.0,1.0,58,0.00,,,0.00,Wunderground v.1.15,2013-03-15 01:50:00,
2013-03-14 18:56:00,67.9,52.1,30.02,WNW,283,1.0,1.0,57,0.00,,,0.00,Wunderground v.1.15,2013-03-15 01:56:00,
2013-03-14 19:05:00,67.9,51.6,30.02,NNW,327,1.0,1.0,56,0.00,,,0.00,Wunderground v.1.15,2013-03-15 02:05:00,
2013-03-14 19:11:00,67.4,52.6,30.02,NNW,330,0.0,0.0,59,0.00,,,0.00,Wunderground v.1.15,2013-03-15 02:11:00,
2013-03-14 19:20:00,66.4,51.6,30.02,NNW,330,0.0,0.0,59,0.00,,,0.00,Wunderground v.1.15,2013-03-15 02:20:00,
2013-03-14 19:25:00,66.1,51.4,30.02,NNW,330,0.0,0.0,59,0.00,,,0.00,Wunderground v.1.15,2013-03-15 02:25:00,
2013-03-14 19:30:00,66.1,51.4,30.02,North,10,0.0,1.0,59,0.00,,,0.00,Wunderground v.1.15,2013-03-15 02:30:00,
2013-03-14 19:36:00,65.9,51.6,30.02,North,4,0.0,1.0,60,0.00,,,0.00,Wunderground v.1.15,2013-03-15 02:36:00,
2013-03-14 19:41:00,66.0,49.8,30.02,NW,316,0.0,0.0,56,0.00,,,0.00,Wunderground v.1.15,2013-03-15 02:41:00,
2013-03-14 19:50:00,66.3,48.7,30.03,ENE,58,1.0,1.0,53,0.00,,,0.00,Wunderground v.1.15,2013-03-15 02:50:00,
2013-03-14 19:55:00,66.3,49.6,30.02,NNE,15,1.0,1.0,55,0.00,,,0.00,Wunderground v.1.15,2013-03-15 02:55:00,
2013-03-14 20:00:00,66.1,48.5,30.03,WNW,293,0.0,0.0,53,0.00,,,0.00,Wunderground v.1.15,2013-03-15 03:00:00,
2013-03-14 20:06:00,65.6,49.0,30.03,SW,230,0.0,0.0,55,0.00,,,0.00,Wunderground v.1.15,2013-03-15 03:06:00,
2013-03-14 20:15:00,64.2,48.2,30.03,NNW,333,1.0,1.0,56,0.00,,,0.00,Wunderground v.1.15,2013-03-15 03:15:00,
2013-03-14 20:20:00,64.0,46.0,30.03,North,356,1.0,1.0,52,0.00,,,0.00,Wunderground v.1.15,2013-03-15 03:20:00,
2013-03-14 20:25:00,64.0,43.9,30.03,NNW,340,0.0,0.0,48,0.00,,,0.00,Wunderground v.1.15,2013-03-15 03:25:00,
2013-03-14 20:31:00,63.6,45.1,30.03,North,8,0.0,1.0,51,0.00,,,0.00,Wunderground v.1.15,2013-03-15 03:31:00,
2013-03-14 20:36:00,63.1,43.1,30.02,North,8,0.0,0.0,48,0.00,,,0.00,Wunderground v.1.15,2013-03-15 03:36:00,
2013-03-14 20:45:00,62.8,42.3,30.02,North,349,0.0,0.0,47,0.00,,,0.00,Wunderground v.1.15,2013-03-15 03:45:00,
2013-03-14 20:50:00,62.4,43.5,30.02,North,349,0.0,0.0,50,0.00,,,0.00,Wunderground v.1.15,2013-03-15 03:50:00,
2013-03-14 20:55:00,61.7,45.4,30.02,North,349,0.0,1.0,55,0.00,,,0.00,Wunderground v.1.15,2013-03-15 03:55:00,
2013-03-14 21:01:00,61.6,47.6,30.02,NW,326,1.0,1.0,60,0.00,,,0.00,Wunderground v.1.15,2013-03-15 04:01:00,
2013-03-14 21:06:00,61.1,46.7,30.02,North,358,1.0,1.0,59,0.00,,,0.00,Wunderground v.1.15,2013-03-15 04:06:00,
2013-03-14 21:11:00,60.3,48.1,30.02,NNE,30,0.0,0.0,64,0.00,,,0.00,Wunderground v.1.15,2013-03-15 04:11:00,
2013-03-14 21:15:00,59.4,46.8,30.02,NNE,30,0.0,0.0,63,0.00,,,0.00,Wunderground v.1.15,2013-03-15 04:15:00,
2013-03-14 21:21:00,59.1,46.9,30.02,North,9,0.0,0.0,64,0.00,,,0.00,Wunderground v.1.15,2013-03-15 04:21:00,
2013-03-14 21:26:00,59.0,45.6,30.03,NE,53,0.0,2.0,61,0.00,,,0.00,Wunderground v.1.15,2013-03-15 04:26:00,
2013-03-14 21:30:00,59.1,42.9,30.03,ESE,120,0.0,1.0,55,0.00,,,0.00,Wunderground v.1.15,2013-03-15 04:30:00,
2013-03-14 21:35:00,60.6,43.9,30.03,NE,46,1.0,1.0,54,0.00,,,0.00,Wunderground v.1.15,2013-03-15 04:35:00,
2013-03-14 21:40:00,61.6,43.3,30.04,East,85,1.0,1.0,51,0.00,,,0.00,Wunderground v.1.15,2013-03-15 04:40:00,
2013-03-14 21:46:00,61.7,41.8,30.04,SW,224,1.0,1.0,48,0.00,,,0.00,Wunderground v.1.15,2013-03-15 04:46:00,
2013-03-14 21:51:00,61.8,42.4,30.04,WNW,283,0.0,1.0,49,0.00,,,0.00,Wunderground v.1.15,2013-03-15 04:51:00,
2013-03-14 21:56:00,62.4,41.9,30.04,North,356,1.0,1.0,47,0.00,,,0.00,Wunderground v.1.15,2013-03-15 04:56:00,
2013-03-14 22:05:00,60.9,42.1,30.04,North,355,0.0,1.0,50,0.00,,,0.00,Wunderground v.1.15,2013-03-15 05:05:00,
2013-03-14 22:16:00,59.1,42.5,30.04,North,351,0.0,0.0,54,0.00,,,0.00,Wunderground v.1.15,2013-03-15 05:16:00,
2013-03-14 22:25:00,58.2,42.6,30.04,North,350,0.0,0.0,56,0.00,,,0.00,Wunderground v.1.15,2013-03-15 05:25:00,
2013-03-14 22:30:00,57.4,42.7,30.04,North,350,0.0,0.0,58,0.00,,,0.00,Wunderground v.1.15,2013-03-15 05:30:00,
2013-03-14 22:36:00,56.9,43.6,30.04,North,351,0.0,0.0,61,0.00,,,0.00,Wunderground v.1.15,2013-03-15 05:36:00,
2013-03-14 22:41:00,56.5,43.2,30.04,North,351,0.0,0.0,61,0.00,,,0.00,Wunderground v.1.15,2013-03-15 05:41:00,
2013-03-14 22:46:00,56.3,42.6,30.04,North,351,0.0,0.0,60,0.00,,,0.00,Wunderground v.1.15,2013-03-15 05:46:00,
2013-03-14 22:55:00,55.4,42.6,30.04,North,351,0.0,0.0,62,0.00,,,0.00,Wunderground v.1.15,2013-03-15 05:55:00,
2013-03-14 23:00:00,55.1,41.9,30.04,North,350,0.0,0.0,61,0.00,,,0.00,Wunderground v.1.15,2013-03-15 06:00:00,
2013-03-14 23:05:00,55.2,42.4,30.04,North,351,0.0,0.0,62,0.00,,,0.00,Wunderground v.1.15,2013-03-15 06:05:00,
2013-03-14 23:15:00,54.3,42.4,30.04,North,351,0.0,0.0,64,0.00,,,0.00,Wunderground v.1.15,2013-03-15 06:15:00,
2013-03-14 23:21:00,54.1,42.2,30.04,North,351,0.0,0.0,64,0.00,,,0.00,Wunderground v.1.15,2013-03-15 06:21:00,
2013-03-14 23:30:00,55.0,41.8,30.04,North,351,0.0,0.0,61,0.00,,,0.00,Wunderground v.1.15,2013-03-15 06:30:00,
2013-03-14 23:35:00,55.1,41.9,30.04,North,351,0.0,0.0,61,0.00,,,0.00,Wunderground v.1.15,2013-03-15 06:35:00,
2013-03-14 23:40:00,54.7,41.9,30.03,North,351,0.0,0.0,62,0.00,,,0.00,Wunderground v.1.15,2013-03-15 06:40:00,
2013-03-14 23:45:00,54.6,41.4,30.03,North,350,0.0,0.0,61,0.00,,,0.00,Wunderground v.1.15,2013-03-15 06:45:00,
2013-03-14 23:51:00,54.5,41.7,30.03,North,350,0.0,0.0,62,0.00,,,0.00,Wunderground v.1.15,2013-03-15 06:51:00,
2013-03-14 23:56:00,54.1,41.4,30.03,North,351,0.0,0.0,62,0.00,,,0.00,Wunderground v.1.15,2013-03-15 06:56:00,